Total_Precipitation_Accumulation
0.25 0.29 0.38 0.52 0.45 0.31 0.19 0.07 0.04 0.06 0.07 0.06 0.06 0.06 0.09 0.12 0.20 0.32 0.31 0.28 0.24 0.32 0.52 0.80 0.98 1.04 1.09 0.99 0.82 0.70 0.69 0.74 0.83 0.89 0.92 1.03 1.04 0.94 0.94 0.96 1.06 1.16 1.32 1.27 1.16 1.00 0.80 0.69 0.56
0.25 0.38 0.59 0.68 0.46 0.26 0.12 0.07 0.06 0.07 0.08 0.09 0.08 0.09 0.12 0.17 0.18 0.22 0.32 0.39 0.34 0.39 0.61 0.78 1.03 1.06 1.09 1.03 0.87 0.78 0.73 0.79 0.87 0.92 0.97 1.04 1.05 1.02 1.06 1.03 1.03 1.13 1.25 1.15 1.01 0.94 0.73 0.55 0.46
0.33 0.53 0.82 0.71 0.43 0.25 0.12 0.07 0.07 0.07 0.08 0.11 0.14 0.16 0.21 0.27 0.24 0.29 0.37 0.48 0.54 0.58 0.74 0.97 1.14 1.13 1.15 1.08 0.99 0.93 0.87 0.90 0.95 0.99 1.08 1.10 1.14 1.12 1.18 1.10 1.02 1.02 1.02 0.96 0.84 0.75 0.65 0.51 0.45
0.51 0.83 0.94 0.70 0.37 0.17 0.12 0.09 0.09 0.10 0.10 0.12 0.19 0.29 0.35 0.33 0.30 0.36 0.46 0.53 0.67 0.77 0.92 1.19 1.38 1.33 1.28 1.19 1.12 1.10 1.05 1.02 1.03 1.05 1.15 1.20 1.25 1.25 1.20 1.05 0.93 0.85 0.84 0.88 0.82 0.69 0.59 0.50 0.45
0.79 1.07 0.94 0.61 0.31 0.15 0.10 0.11 0.11 0.13 0.13 0.14 0.22 0.38 0.51 0.45 0.43 0.53 0.59 0.65 0.80 0.90 1.08 1.38 1.59 1.60 1.46 1.35 1.29 1.29 1.26 1.25 1.21 1.16 1.22 1.29 1.31 1.30 1.20 0.97 0.80 0.70 0.73 0.81 0.83 0.79 0.66 0.56 0.47
1.13 1.12 0.89 0.55 0.26 0.16 0.11 0.12 0.14 0.17 0.17 0.20 0.28 0.45 0.64 0.67 0.72 0.83 0.85 0.84 0.98 1.05 1.25 1.54 1.78 1.71 1.61 1.59 1.54 1.53 1.52 1.47 1.39 1.35 1.43 1.44 1.38 1.29 1.14 0.99 0.83 0.71 0.69 0.78 0.78 0.81 0.73 0.60 0.52
1.18 0.99 0.70 0.43 0.26 0.20 0.15 0.13 0.17 0.19 0.22 0.26 0.29 0.55 0.78 0.98 1.10 1.19 1.25 1.26 1.28 1.36 1.54 1.74 1.84 1.74 1.64 1.61 1.63 1.64 1.69 1.71 1.60 1.48 1.47 1.45 1.37 1.25 1.12 0.93 0.88 0.82 0.76 0.77 0.77 0.73 0.75 0.67 0.56
1.18 1.13 0.69 0.42 0.31 0.25 0.21 0.20 0.18 0.22 0.27 0.30 0.38 0.64 0.88 1.10 1.38 1.65 1.69 1.85 1.83 1.86 1.92 2.00 2.09 1.99 1.81 1.65 1.69 1.70 1.69 1.65 1.65 1.54 1.32 1.25 1.17 1.11 1.08 0.84 0.82 0.82 0.79 0.72 0.72 0.73 0.74 0.65 0.52
1.27 1.31 0.76 0.41 0.34 0.29 0.28 0.30 0.25 0.23 0.32 0.43 0.47 0.62 0.92 1.27 1.70 2.17 2.25 2.37 2.42 2.36 2.39 2.33 2.36 2.29 2.20 2.01 1.87 1.87 1.74 1.64 1.62 1.52 1.28 1.18 1.24 1.14 0.93 0.69 0.67 0.70 0.72 0.71 0.69 0.67 0.67 0.54 0.46
1.39 1.15 0.60 0.33 0.32 0.35 0.36 0.39 0.37 0.35 0.42 0.52 0.66 0.72 1.13 1.66 2.06 2.35 2.46 2.41 2.58 2.55 2.61 2.58 2.57 2.54 2.52 2.22 2.07 2.07 1.89 1.69 1.55 1.41 1.36 1.26 1.24 1.21 0.96 0.80 0.68 0.71 0.69 0.70 0.77 0.76 0.63 0.49 0.42
1.12 0.77 0.50 0.40 0.38 0.42 0.46 0.47 0.48 0.51 0.53 0.55 0.64 0.77 1.17 1.76 2.30 2.44 2.66 2.65 2.70 2.88 2.87 2.80 2.76 2.76 2.76 2.61 2.23 2.11 1.94 1.85 1.74 1.50 1.44 1.38 1.39 1.35 1.19 1.05 0.92 0.87 0.74 0.73 0.76 0.79 0.63 0.51 0.47
0.92 0.61 0.56 0.56 0.49 0.55 0.57 0.56 0.54 0.56 0.56 0.54 0.65 0.77 1.13 1.60 2.09 2.48 2.70 2.83 2.70 2.94 3.07 2.96 2.90 2.87 2.87 2.81 2.53 2.24 2.02 1.84 1.74 1.58 1.46 1.49 1.47 1.37 1.23 1.09 1.02 0.94 0.82 0.77 0.75 0.70 0.60 0.52 0.48
0.82 0.63 0.62 0.64 0.63 0.68 0.71 0.65 0.62 0.58 0.56 0.62 0.86 1.07 1.25 1.51 1.84 2.37 2.74 2.85 2.78 2.80 3.11 3.17 3.09 2.97 2.85 2.86 2.74 2.43 2.15 1.86 1.78 1.76 1.61 1.45 1.40 1.30 1.27 1.14 1.12 1.05 0.91 0.86 0.81 0.74 0.68 0.62 0.55
0.69 0.64 0.70 0.76 0.78 0.78 0.88 0.76 0.73 0.69 0.66 0.84 1.05 1.19 1.39 1.62 1.83 2.26 2.62 2.84 2.74 2.66 2.95 3.18 3.33 3.25 3.05 2.81 2.68 2.54 2.34 2.15 2.06 1.95 1.79 1.67 1.54 1.44 1.31 1.20 1.16 1.12 0.99 0.89 0.87 0.81 0.77 0.72 0.66
0.79 0.85 0.88 0.89 0.86 0.84 0.97 0.98 0.76 0.74 0.82 0.92 1.04 1.22 1.41 1.66 2.00 2.31 2.48 2.72 2.89 2.77 2.90 3.11 3.37 3.55 3.41 3.14 2.92 2.75 2.57 2.40 2.27 2.16 2.13 2.00 1.78 1.61 1.52 1.31 1.18 1.14 1.15 1.13 1.08 1.03 0.90 0.78 0.72
1.25 1.21 1.09 0.90 0.84 0.84 1.12 1.13 0.77 0.72 0.86 0.93 1.05 1.24 1.40 1.59 1.91 2.24 2.49 2.73 3.05 3.12 3.13 3.29 3.32 3.53 3.63 3.52 3.26 2.98 2.77 2.59 2.37 2.18 2.16 2.15 2.00 1.83 1.74 1.59 1.38 1.30 1.32 1.31 1.23 1.12 1.05 0.89 0.77
1.41 1.17 0.88 0.79 0.79 0.89 1.05 1.01 0.86 0.79 0.81 0.92 1.05 1.21 1.41 1.51 1.70 2.00 2.33 2.70 3.05 3.24 3.38 3.56 3.53 3.43 3.58 3.74 3.64 3.27 3.00 2.78 2.60 2.36 2.21 2.23 2.21 2.07 1.89 1.68 1.57 1.57 1.52 1.41 1.34 1.20 1.19 1.13 0.94
0.91 0.73 0.62 0.64 0.67 0.76 0.87 0.84 0.89 0.92 0.87 0.85 0.97 1.11 1.33 1.39 1.46 1.68 2.05 2.56 3.01 3.29 3.38 3.51 3.64 3.68 3.75 3.89 4.00 3.77 3.41 3.09 2.87 2.68 2.46 2.36 2.42 2.43 2.25 1.91 1.74 1.74 1.72 1.64 1.53 1.44 1.35 1.28 1.25
0.72 0.66 0.57 0.46 0.49 0.68 0.76 0.81 0.93 1.00 0.89 0.86 0.96 1.06 1.18 1.24 1.33 1.50 1.79 2.22 2.67 3.15 3.26 3.27 3.37 3.56 3.70 3.82 3.83 3.71 3.40 3.23 3.07 2.84 2.70 2.62 2.50 2.51 2.58 2.31 2.07 1.99 1.92 1.88 1.84 1.81 1.74 1.54 1.49
0.81 0.77 0.64 0.55 0.55 0.75 0.79 0.87 0.88 0.94 0.95 0.89 0.90 0.96 1.01 1.15 1.31 1.46 1.69 1.98 2.24 2.71 3.06 3.11 3.18 3.27 3.34 3.39 3.60 3.71 3.59 3.31 3.19 3.10 2.92 2.74 2.64 2.57 2.61 2.65 2.45 2.17 2.10 2.10 2.09 2.01 1.87 1.80 1.75
0.85 0.67 0.63 0.75 0.79 0.89 0.92 1.02 0.92 0.91 0.92 0.84 0.82 0.88 0.88 1.01 1.26 1.39 1.55 1.87 2.07 2.42 2.84 2.99 3.11 3.23 3.20 3.35 3.78 4.01 4.02 3.70 3.39 3.17 3.09 2.94 2.76 2.69 2.61 2.55 2.57 2.46 2.29 2.20 2.23 2.29 2.26 2.13 2.02
0.92 0.54 0.59 0.82 1.16 1.28 1.03 1.29 1.03 0.96 0.89 0.84 0.81 0.87 0.88 0.94 1.14 1.25 1.35 1.68 1.93 2.15 2.48 2.71 3.00 3.25 3.36 3.43 3.63 3.69 3.52 3.33 3.02 2.91 2.90 2.94 2.93 2.75 2.66 2.64 2.60 2.54 2.45 2.31 2.31 2.40 2.45 2.47 2.37
0.81 0.60 0.71 0.92 1.26 1.36 0.92 1.15 1.04 0.93 0.94 0.92 0.89 0.97 0.99 0.96 1.09 1.26 1.35 1.49 1.65 1.96 2.25 2.43 2.61 2.89 3.16 3.30 3.45 3.58 3.41 3.15 3.02 2.99 2.95 2.89 2.91 2.85 2.74 2.66 2.67 2.65 2.54 2.46 2.44 2.46 2.49 2.51 2.49
0.85 1.03 1.10 1.17 1.68 1.77 0.90 0.96 1.01 0.99 0.97 0.90 0.88 0.94 0.97 0.99 1.09 1.22 1.29 1.40 1.50 1.74 2.08 2.25 2.39 2.56 2.84 3.05 3.24 3.43 3.32 3.07 2.82 2.80 2.83 2.75 2.72 2.67 2.60 2.63 2.59 2.59 2.54 2.42 2.36 2.39 2.42 2.45 2.40
1.30 1.84 2.29 2.24 2.14 1.41 0.70 0.88 1.10 0.94 0.85 0.87 0.93 0.92 0.93 0.95 1.02 1.13 1.23 1.40 1.50 1.65 1.81 1.93 2.01 2.14 2.39 2.66 2.82 3.02 3.12 3.07 2.85 2.59 2.60 2.57 2.47 2.39 2.32 2.36 2.42 2.46 2.45 2.44 2.38 2.31 2.23 2.28 2.34
1.29 1.54 1.87 1.68 1.15 0.80 0.69 0.93 1.03 0.83 0.82 0.84 0.89 0.89 0.88 0.91 0.99 1.04 1.12 1.29 1.45 1.59 1.61 1.65 1.71 1.83 1.95 2.08 2.27 2.43 2.52 2.69 2.75 2.61 2.45 2.41 2.31 2.21 2.18 2.21 2.26 2.32 2.39 2.40 2.42 2.36 2.22 2.16 2.14
1.24 1.27 1.10 1.40 0.99 0.84 0.84 0.86 0.87 0.72 0.77 0.78 0.79 0.83 0.88 0.91 0.91 0.98 1.10 1.21 1.31 1.43 1.49 1.50 1.57 1.64 1.67 1.79 1.91 2.11 2.14 2.17 2.28 2.33 2.34 2.32 2.21 2.12 2.13 2.22 2.21 2.16 2.16 2.16 2.22 2.25 2.12 2.02 1.97
1.05 1.09 1.32 1.85 1.59 1.14 0.81 0.77 1.00 0.84 0.82 0.85 0.82 0.84 0.90 0.89 0.90 1.01 1.14 1.24 1.29 1.38 1.44 1.41 1.46 1.52 1.57 1.63 1.75 1.88 1.96 2.02 2.04 2.04 2.04 2.09 2.06 1.95 1.94 2.01 2.09 2.08 2.05 2.06 2.08 2.02 1.93 1.87 1.75
1.00 1.20 1.42 1.50 1.30 1.25 0.98 0.98 0.99 0.84 0.79 0.81 0.79 0.81 0.84 0.85 0.90 1.04 1.16 1.28 1.32 1.33 1.38 1.39 1.34 1.37 1.44 1.49 1.54 1.64 1.71 1.79 1.90 1.88 1.83 1.82 1.85 1.80 1.76 1.80 1.84 1.83 1.80 1.83 1.90 1.86 1.82 1.80 1.73
0.83 0.94 1.18 1.63 1.25 0.98 1.02 1.05 0.86 0.74 0.69 0.73 0.74 0.75 0.75 0.78 0.86 0.98 1.06 1.10 1.17 1.26 1.36 1.42 1.35 1.34 1.31 1.39 1.47 1.48 1.53 1.58 1.68 1.71 1.72 1.68 1.69 1.70 1.67 1.69 1.73 1.71 1.68 1.66 1.69 1.69 1.67 1.70 1.69